| time (UTC) | temp F | wind direction | speed MPH | gust MPH | rain 1hr in | rain 24hr in | rain mn in | humidity % | barometer mb |
| 20260508073304 | 60 | 160 | 5.0 | 7.0 | 0.00 | 0.00 | 0.00 | 76 | 1010.8 |
| 20260508072307 | 60 | 167 | 4.0 | 6.0 | 0.00 | 0.00 | 0.00 | 77 | 1010.6 |
| 20260508071804 | 60 | 173 | 5.0 | 7.0 | 0.00 | 0.00 | 0.00 | 77 | 1010.6 |
| 20260508071304 | 60 | 171 | 3.0 | 7.0 | 0.00 | 0.00 | 0.00 | 78 | 1010.7 |
| 20260508070804 | 59 | 172 | 4.0 | 7.0 | 0.00 | 0.00 | 0.00 | 78 | 1010.7 |
| 20260508070304 | 59 | 169 | 5.0 | 7.0 | 0.00 | 0.00 | 0.00 | 78 | 1010.7 |
| 20260508065804 | 59 | 195 | 5.0 | 8.0 | 0.00 | 0.00 | 0.00 | 78 | 1010.7 |
| 20260508065306 | 59 | 178 | 4.0 | 7.0 | 0.00 | 0.00 | 0.00 | 79 | 1010.7 |
| 20260508064804 | 59 | 182 | 3.0 | 7.0 | 0.00 | 0.00 | 0.00 | 79 | 1010.7 |
| 20260508064304 | 59 | 190 | 3.0 | 7.0 | 0.00 | 0.00 | 0.00 | 80 | 1010.6 |
| 20260508063804 | 59 | 187 | 4.0 | 7.0 | 0.00 | 0.00 | 0.00 | 80 | 1010.6 |
| 20260508063304 | 58 | 171 | 3.0 | 6.0 | 0.00 | 0.00 | 0.00 | 80 | 1010.6 |
| 20260508062804 | 58 | 171 | 3.0 | 6.0 | 0.00 | 0.00 | 0.00 | 80 | 1010.6 |
| 20260508062306 | 58 | 197 | 3.0 | 5.0 | 0.00 | 0.00 | 0.00 | 80 | 1010.6 |
| 20260508061803 | 58 | 202 | 3.0 | 7.0 | 0.00 | 0.00 | 0.00 | 80 | 1010.6 |
| 20260508061304 | 58 | 182 | 4.0 | 8.0 | 0.00 | 0.00 | 0.00 | 80 | 1010.5 |
| 20260508060803 | 58 | 152 | 2.0 | 6.0 | 0.00 | 0.00 | 0.00 | 80 | 1010.4 |
| 20260508060304 | 58 | 143 | 3.0 | 6.0 | 0.00 | 0.00 | 0.00 | 80 | 1010.4 |
| 20260508055803 | 58 | 167 | 4.0 | 6.0 | 0.00 | 0.00 | 0.00 | 80 | 1010.4 |
| 20260508055306 | 58 | 183 | 4.0 | 6.0 | 0.00 | 0.00 | 0.00 | 80 | 1010.4 |
| 20260508054804 | 58 | 178 | 2.0 | 5.0 | 0.00 | 0.00 | 0.00 | 80 | 1010.4 |
| 20260508054303 | 58 | 189 | 5.0 | 7.0 | 0.00 | 0.00 | 0.00 | 79 | 1010.3 |
| 20260508053804 | 58 | 185 | 4.0 | 6.0 | 0.00 | 0.00 | 0.00 | 79 | 1010.2 |
| 20260508053304 | 58 | 182 | 3.0 | 5.0 | 0.00 | 0.00 | 0.00 | 79 | 1010.2 |
| 20260508052804 | 58 | 189 | 3.0 | 5.0 | 0.00 | 0.00 | 0.00 | 79 | 1010.1 |
| 20260508051803 | 58 | 174 | 3.0 | 5.0 | 0.00 | 0.00 | 0.00 | 78 | 1009.7 |
| 20260508051304 | 59 | 149 | 2.0 | 3.0 | 0.00 | 0.00 | 0.00 | 79 | 1009.7 |
| 20260508050803 | 59 | 175 | 2.0 | 3.0 | 0.00 | 0.00 | 0.00 | 79 | 1009.7 |
| 20260508050304 | 58 | 153 | 2.0 | 7.0 | 0.00 | 0.00 | 0.00 | 79 | 1009.7 |
| 20260508045804 | 58 | 169 | 3.0 | 7.0 | 0.00 | 0.00 | 0.00 | 79 | 1009.6 |
| 20260508045306 | 58 | 182 | 4.0 | 7.0 | 0.00 | 0.00 | 0.00 | 78 | 1009.6 |
| 20260508044804 | 59 | 203 | 4.0 | 6.0 | 0.00 | 0.00 | 0.00 | 78 | 1009.4 |
| 20260508044304 | 59 | 176 | 3.0 | 6.0 | 0.00 | 0.00 | 0.00 | 78 | 1009.4 |
| 20260508043804 | 59 | 210 | 2.0 | 6.0 | 0.00 | 0.00 | 0.00 | 77 | 1009.2 |
| 20260508043304 | 59 | 214 | 3.0 | 6.0 | 0.00 | 0.00 | 0.00 | 78 | 1009.2 |
| 20260508042804 | 59 | 174 | 3.0 | 6.0 | 0.00 | 0.00 | 0.00 | 78 | 1009.0 |
| 20260508042307 | 59 | 136 | 2.0 | 5.0 | 0.00 | 0.00 | 0.00 | 78 | 1009.3 |
| 20260508041804 | 59 | 157 | 2.0 | 3.0 | 0.00 | 0.00 | 0.00 | 78 | 1009.3 |
| 20260508040304 | 59 | 164 | 2.0 | 5.0 | 0.00 | 0.00 | 0.00 | 77 | 1009.5 |
| 20260508035803 | 59 | 177 | 4.0 | 8.0 | 0.00 | 0.00 | 0.00 | 77 | 1009.5 |
| 20260508035306 | 59 | 205 | 4.0 | 6.0 | 0.00 | 0.00 | 0.00 | 77 | 1009.5 |
| 20260508034804 | 60 | 209 | 3.0 | 6.0 | 0.00 | 0.00 | 0.00 | 76 | 1009.3 |
| 20260508034303 | 60 | 185 | 1.0 | 3.0 | 0.00 | 0.00 | 0.00 | 76 | 1009.3 |
| 20260508033803 | 60 | 123 | 2.0 | 5.0 | 0.00 | 0.00 | 0.00 | 76 | 1009.5 |
| 20260508033304 | 60 | 148 | 3.0 | 6.0 | 0.00 | 0.00 | 0.00 | 76 | 1009.5 |
| 20260508032804 | 60 | 150 | 3.0 | 6.0 | 0.00 | 0.00 | 0.00 | 76 | 1009.5 |
| 20260508032306 | 60 | 178 | 3.0 | 5.0 | 0.00 | 0.00 | 0.00 | 76 | 1009.5 |
| 20260508031303 | 60 | 184 | 3.0 | 5.0 | 0.00 | 0.00 | 0.00 | 76 | 1009.5 |
| 20260508030804 | 60 | 189 | 2.0 | 5.0 | 0.00 | 0.00 | 0.00 | 76 | 1009.6 |
| 20260508030304 | 60 | 173 | 3.0 | 7.0 | 0.00 | 0.00 | 0.00 | 76 | 1009.7 |
| 20260508025803 | 59 | 171 | 2.0 | 6.0 | 0.00 | 0.00 | 0.00 | 76 | 1009.7 |
| 20260508024803 | 59 | 191 | 2.0 | 5.0 | 0.00 | 0.00 | 0.00 | 76 | 1009.9 |
| 20260508024304 | 59 | 173 | 2.0 | 6.0 | 0.00 | 0.00 | 0.00 | 76 | 1009.8 |
| 20260508023304 | 59 | 168 | 4.0 | 7.0 | 0.00 | 0.00 | 0.00 | 76 | 1009.7 |
| 20260508022804 | 60 | 191 | 3.0 | 5.0 | 0.00 | 0.00 | 0.00 | 76 | 1009.8 |
| 20260508022306 | 60 | 183 | 5.0 | 7.0 | 0.00 | 0.00 | 0.00 | 76 | 1009.9 |
| 20260508021804 | 60 | 187 | 5.0 | 7.0 | 0.00 | 0.00 | 0.00 | 75 | 1009.7 |
| 20260508021304 | 60 | 193 | 4.0 | 9.0 | 0.00 | 0.00 | 0.00 | 75 | 1009.7 |
| 20260508020804 | 60 | 202 | 5.0 | 8.0 | 0.00 | 0.00 | 0.00 | 75 | 1009.7 |
| 20260508020304 | 60 | 200 | 6.0 | 9.0 | 0.00 | 0.00 | 0.00 | 75 | 1009.7 |
| 20260508015804 | 60 | 177 | 4.0 | 7.0 | 0.00 | 0.00 | 0.00 | 75 | 1009.6 |
| 20260508015306 | 60 | 185 | 5.0 | 7.0 | 0.00 | 0.00 | 0.00 | 75 | 1009.7 |
| 20260508014804 | 60 | 169 | 2.0 | 5.0 | 0.00 | 0.00 | 0.00 | 75 | 1009.7 |
| 20260508014304 | 60 | 171 | 1.0 | 3.0 | 0.00 | 0.00 | 0.00 | 76 | 1010.0 |
| 20260508013804 | 60 | 193 | 2.0 | 5.0 | 0.00 | 0.00 | 0.00 | 76 | 1010.0 |
| 20260508013304 | 60 | 197 | 3.0 | 6.0 | 0.00 | 0.00 | 0.00 | 76 | 1010.0 |
| 20260508012307 | 60 | 194 | 5.0 | 8.0 | 0.00 | 0.00 | 0.00 | 75 | 1010.0 |
| 20260508011804 | 60 | 176 | 4.0 | 6.0 | 0.00 | 0.00 | 0.00 | 75 | 1010.1 |
| 20260508010804 | 60 | 185 | 5.0 | 7.0 | 0.00 | 0.00 | 0.00 | 75 | 1010.1 |
| 20260508010304 | 60 | 173 | 5.0 | 7.0 | 0.00 | 0.00 | 0.00 | 75 | 1010.0 |
| 20260508005804 | 60 | 168 | 5.0 | 8.0 | 0.00 | 0.00 | 0.00 | 75 | 1010.4 |
| 20260508005305 | 60 | 180 | 5.0 | 9.0 | 0.00 | 0.00 | 0.00 | 75 | 1010.4 |
| 20260508004804 | 60 | 201 | 5.0 | 8.0 | 0.00 | 0.00 | 0.00 | 75 | 1010.4 |
| 20260508004304 | 61 | 193 | 4.0 | 7.0 | 0.00 | 0.00 | 0.00 | 75 | 1010.3 |
| 20260508003804 | 61 | 195 | 5.0 | 8.0 | 0.00 | 0.00 | 0.00 | 75 | 1010.3 |
| 20260508003304 | 61 | 197 | 5.0 | 8.0 | 0.00 | 0.00 | 0.00 | 75 | 1010.1 |
| 20260508002804 | 61 | 177 | 5.0 | 7.0 | 0.00 | 0.00 | 0.00 | 75 | 1010.1 |
| 20260508002306 | 61 | 190 | 6.0 | 9.0 | 0.00 | 0.00 | 0.00 | 75 | 1010.1 |
| 20260508001804 | 61 | 166 | 4.0 | 7.0 | 0.00 | 0.00 | 0.00 | 75 | 1009.9 |
| 20260508001304 | 61 | 181 | 4.0 | 9.0 | 0.00 | 0.00 | 0.00 | 74 | 1010.1 |
| 20260508000305 | 61 | 175 | 4.0 | 6.0 | 0.00 | 0.00 | 0.00 | 74 | 1010.2 |
| 20260507235804 | 61 | 179 | 3.0 | 7.0 | 0.00 | 0.00 | 0.00 | 74 | 1010.4 |
| 20260507235306 | 62 | 193 | 4.0 | 6.0 | 0.00 | 0.00 | 0.00 | 73 | 1010.4 |
| 20260507234804 | 62 | 188 | 4.0 | 7.0 | 0.00 | 0.00 | 0.00 | 73 | 1010.4 |
| 20260507234304 | 62 | 184 | 4.0 | 7.0 | 0.00 | 0.00 | 0.00 | 72 | 1010.3 |
| 20260507233804 | 62 | 181 | 4.0 | 7.0 | 0.00 | 0.00 | 0.00 | 72 | 1010.2 |
| 20260507233304 | 62 | 181 | 3.0 | 8.0 | 0.00 | 0.00 | 0.00 | 72 | 1010.1 |
| 20260507232803 | 62 | 191 | 5.0 | 8.0 | 0.00 | 0.00 | 0.00 | 72 | 1010.1 |
| 20260507232306 | 62 | 184 | 3.0 | 7.0 | 0.00 | 0.00 | 0.00 | 72 | 1010.3 |
| 20260507231804 | 62 | 178 | 2.0 | 3.0 | 0.00 | 0.00 | 0.00 | 72 | 1010.6 |
| 20260507231304 | 62 | 154 | 3.0 | 5.0 | 0.00 | 0.00 | 0.00 | 72 | 1010.6 |
| 20260507230304 | 62 | 191 | 3.0 | 8.0 | 0.00 | 0.00 | 0.00 | 72 | 1010.5 |
| 20260507225804 | 62 | 174 | 2.0 | 5.0 | 0.00 | 0.00 | 0.00 | 72 | 1010.5 |
| 20260507225306 | 62 | 179 | 3.0 | 6.0 | 0.00 | 0.00 | 0.00 | 72 | 1010.7 |
| 20260507224804 | 62 | 176 | 2.0 | 6.0 | 0.00 | 0.00 | 0.00 | 72 | 1010.7 |
| 20260507224304 | 62 | 184 | 4.0 | 8.0 | 0.00 | 0.00 | 0.00 | 72 | 1010.9 |
| 20260507223804 | 62 | 177 | 3.0 | 5.0 | 0.00 | 0.00 | 0.00 | 71 | 1010.9 |
| 20260507223303 | 62 | 185 | 3.0 | 6.0 | 0.00 | 0.00 | 0.00 | 71 | 1010.9 |
| 20260507222804 | 62 | 176 | 3.0 | 6.0 | 0.00 | 0.00 | 0.00 | 71 | 1010.9 |
| 20260507222306 | 62 | 161 | 3.0 | 6.0 | 0.00 | 0.00 | 0.00 | 70 | 1010.9 |
| 20260507221804 | 62 | 164 | 3.0 | 7.0 | 0.00 | 0.00 | 0.00 | 70 | 1011.0 |
| 20260507220804 | 62 | 184 | 3.0 | 6.0 | 0.00 | 0.00 | 0.00 | 69 | 1010.9 |
| 20260507220304 | 62 | 171 | 3.0 | 7.0 | 0.00 | 0.00 | 0.00 | 69 | 1010.9 |
| 20260507215804 | 62 | 170 | 5.0 | 9.0 | 0.00 | 0.00 | 0.00 | 68 | 1010.9 |
| 20260507214803 | 63 | 174 | 5.0 | 7.0 | 0.00 | 0.00 | 0.00 | 67 | 1010.8 |
| 20260507214303 | 63 | 173 | 3.0 | 6.0 | 0.00 | 0.00 | 0.00 | 66 | 1010.8 |
| 20260507213804 | 63 | 183 | 2.0 | 3.0 | 0.00 | 0.00 | 0.00 | 66 | 1010.8 |
| 20260507213304 | 63 | 185 | 3.0 | 6.0 | 0.00 | 0.00 | 0.00 | 64 | 1010.9 |
| 20260507212803 | 63 | 161 | 2.0 | 5.0 | 0.00 | 0.00 | 0.00 | 64 | 1010.7 |
| 20260507212307 | 63 | 216 | 2.0 | 5.0 | 0.00 | 0.00 | 0.00 | 64 | 1010.7 |
| 20260507211804 | 63 | 225 | 3.0 | 7.0 | 0.00 | 0.00 | 0.00 | 63 | 1010.7 |
| 20260507211303 | 64 | 209 | 3.0 | 7.0 | 0.00 | 0.00 | 0.00 | 63 | 1010.7 |
| 20260507210804 | 64 | 194 | 6.0 | 7.0 | 0.00 | 0.00 | 0.00 | 63 | 1010.6 |
| 20260507210303 | 64 | 187 | 4.0 | 6.0 | 0.00 | 0.00 | 0.00 | 62 | 1010.3 |
| 20260507205804 | 64 | 206 | 4.0 | 6.0 | 0.00 | 0.00 | 0.00 | 62 | 1010.3 |
| 20260507204804 | 64 | 163 | 3.0 | 8.0 | 0.00 | 0.00 | 0.00 | 62 | 1010.3 |
| 20260507204304 | 64 | 291 | 2.0 | 5.0 | 0.00 | 0.00 | 0.00 | 62 | 1010.3 |
| 20260507203304 | 64 | 211 | 3.0 | 7.0 | 0.00 | 0.00 | 0.00 | 62 | 1010.2 |
| 20260507202804 | 64 | 272 | 5.0 | 8.0 | 0.00 | 0.00 | 0.00 | 62 | 1010.2 |
| 20260507202306 | 64 | 231 | 4.0 | 9.0 | 0.00 | 0.00 | 0.00 | 62 | 1010.2 |
| 20260507201804 | 64 | 231 | 4.0 | 9.0 | 0.00 | 0.00 | 0.00 | 62 | 1010.2 |
| 20260507201304 | 64 | 216 | 4.0 | 9.0 | 0.00 | 0.00 | 0.00 | 62 | 1010.2 |
| 20260507200804 | 64 | 223 | 6.0 | 9.0 | 0.00 | 0.00 | 0.00 | 62 | 1010.2 |
| 20260507200304 | 64 | 217 | 3.0 | 10.0 | 0.00 | 0.00 | 0.00 | 62 | 1010.1 |
| 20260507195804 | 64 | 232 | 5.0 | 9.0 | 0.00 | 0.00 | 0.00 | 63 | 1010.1 |
| 20260507195305 | 64 | 228 | 6.0 | 8.0 | 0.00 | 0.00 | 0.00 | 63 | 1010.1 |
| 20260507194804 | 65 | 223 | 7.0 | 12.0 | 0.00 | 0.00 | 0.00 | 63 | 1010.0 |
| 20260507193804 | 65 | 229 | 8.0 | 14.0 | 0.00 | 0.00 | 0.00 | 62 | 1010.0 |
| 20260507193304 | 65 | 230 | 7.0 | 10.0 | 0.00 | 0.00 | 0.00 | 61 | 1009.8 |
| 20260507192804 | 65 | 229 | 6.0 | 10.0 | 0.00 | 0.00 | 0.00 | 61 | 1009.7 |
| 20260507192306 | 66 | 241 | 8.0 | 14.0 | 0.00 | 0.00 | 0.00 | 61 | 1009.7 |
| 20260507191804 | 66 | 226 | 6.0 | 13.0 | 0.00 | 0.00 | 0.00 | 62 | 1009.7 |
| 20260507191304 | 66 | 245 | 8.0 | 14.0 | 0.00 | 0.00 | 0.00 | 61 | 1009.6 |
| 20260507190804 | 66 | 226 | 6.0 | 13.0 | 0.00 | 0.00 | 0.00 | 60 | 1009.6 |
| 20260507190304 | 67 | 226 | 9.0 | 14.0 | 0.00 | 0.00 | 0.00 | 59 | 1009.4 |
| 20260507185804 | 67 | 238 | 9.0 | 14.0 | 0.00 | 0.00 | 0.00 | 58 | 1009.4 |
| 20260507185306 | 67 | 213 | 5.0 | 10.0 | 0.00 | 0.00 | 0.00 | 58 | 1009.3 |
| 20260507184804 | 67 | 235 | 9.0 | 15.0 | 0.00 | 0.00 | 0.00 | 58 | 1009.1 |
| 20260507184304 | 67 | 201 | 9.0 | 15.0 | 0.00 | 0.00 | 0.00 | 57 | 1009.1 |
| 20260507183804 | 68 | 206 | 9.0 | 15.0 | 0.00 | 0.00 | 0.00 | 56 | 1009.0 |
| 20260507183303 | 68 | 243 | 6.0 | 12.0 | 0.00 | 0.00 | 0.00 | 56 | 1009.0 |
| 20260507182804 | 68 | 203 | 9.0 | 13.0 | 0.00 | 0.00 | 0.00 | 55 | 1008.8 |
| 20260507181804 | 69 | 228 | 9.0 | 16.0 | 0.00 | 0.00 | 0.00 | 56 | 1008.7 |
| 20260507175803 | 70 | 228 | 7.0 | 15.0 | 0.00 | 0.00 | 0.00 | 53 | 1008.5 |
| 20260507175306 | 70 | 209 | 10.0 | 16.0 | 0.00 | 0.00 | 0.00 | 53 | 1008.5 |
| 20260507174804 | 70 | 232 | 10.0 | 16.0 | 0.00 | 0.00 | 0.00 | 52 | 1008.5 |
| 20260507174304 | 71 | 205 | 9.0 | 17.0 | 0.00 | 0.00 | 0.00 | 51 | 1008.5 |
| 20260507173804 | 70 | 201 | 9.0 | 15.0 | 0.00 | 0.00 | 0.00 | 51 | 1008.5 |
| 20260507173304 | 70 | 240 | 7.0 | 13.0 | 0.00 | 0.00 | 0.00 | 52 | 1008.2 |
| 20260507172803 | 70 | 208 | 10.0 | 17.0 | 0.00 | 0.00 | 0.00 | 51 | 1008.2 |
| 20260507172307 | 71 | 214 | 10.0 | 16.0 | 0.00 | 0.00 | 0.00 | 50 | 1008.2 |
| 20260507171804 | 71 | 226 | 9.0 | 14.0 | 0.00 | 0.00 | 0.00 | 51 | 1008.2 |
| 20260507170304 | 71 | 210 | 9.0 | 17.0 | 0.00 | 0.00 | 0.00 | 49 | 1008.1 |
| 20260507165804 | 72 | 201 | 9.0 | 14.0 | 0.00 | 0.00 | 0.00 | 48 | 1008.0 |
| 20260507164304 | 72 | 201 | 9.0 | 15.0 | 0.00 | 0.00 | 0.00 | 47 | 1007.9 |
| 20260507163804 | 72 | 230 | 9.0 | 12.0 | 0.00 | 0.00 | 0.00 | 47 | 1007.9 |
| 20260507163304 | 72 | 206 | 11.0 | 16.0 | 0.00 | 0.00 | 0.00 | 46 | 1008.0 |
| 20260507162804 | 73 | 207 | 7.0 | 16.0 | 0.00 | 0.00 | 0.00 | 46 | 1007.9 |
| 20260507162306 | 73 | 199 | 9.0 | 16.0 | 0.00 | 0.00 | 0.00 | 46 | 1007.8 |
| 20260507161804 | 73 | 207 | 7.0 | 15.0 | 0.00 | 0.00 | 0.00 | 47 | 1007.8 |
| 20260507161303 | 73 | 189 | 8.0 | 14.0 | 0.00 | 0.00 | 0.00 | 47 | 1007.8 |
| 20260507160803 | 73 | 244 | 8.0 | 14.0 | 0.00 | 0.00 | 0.00 | 46 | 1007.8 |
| 20260507155803 | 74 | 195 | 9.0 | 15.0 | 0.00 | 0.00 | 0.00 | 44 | 1007.8 |
| 20260507155306 | 73 | 220 | 5.0 | 14.0 | 0.00 | 0.00 | 0.00 | 44 | 1007.8 |
| 20260507154804 | 73 | 257 | 9.0 | 17.0 | 0.00 | 0.00 | 0.00 | 42 | 1007.9 |
| 20260507154304 | 73 | 198 | 5.0 | 16.0 | 0.00 | 0.00 | 0.00 | 44 | 1007.9 |
| 20260507153804 | 73 | 202 | 11.0 | 18.0 | 0.00 | 0.00 | 0.00 | 43 | 1007.9 |
| 20260507153304 | 73 | 233 | 8.0 | 12.0 | 0.00 | 0.00 | 0.00 | 42 | 1007.8 |
| 20260507152306 | 73 | 227 | 7.0 | 16.0 | 0.00 | 0.00 | 0.00 | 42 | 1007.9 |
| 20260507151803 | 73 | 208 | 11.0 | 15.0 | 0.00 | 0.00 | 0.00 | 42 | 1007.9 |
| 20260507151304 | 74 | 173 | 8.0 | 16.0 | 0.00 | 0.00 | 0.00 | 44 | 1008.0 |
| 20260507150804 | 73 | 247 | 7.0 | 15.0 | 0.00 | 0.00 | 0.00 | 44 | 1008.0 |
| 20260507150304 | 73 | 223 | 9.0 | 16.0 | 0.00 | 0.00 | 0.00 | 44 | 1008.0 |
| 20260507145803 | 73 | 207 | 6.0 | 13.0 | 0.00 | 0.00 | 0.00 | 45 | 1008.1 |
| 20260507144803 | 73 | 231 | 9.0 | 16.0 | 0.00 | 0.00 | 0.00 | 45 | 1008.2 |
| 20260507144304 | 73 | 231 | 8.0 | 15.0 | 0.00 | 0.00 | 0.00 | 47 | 1008.2 |
| 20260507143304 | 72 | 208 | 9.0 | 13.0 | 0.00 | 0.00 | 0.00 | 49 | 1008.3 |
| 20260507142306 | 72 | 227 | 10.0 | 16.0 | 0.00 | 0.00 | 0.00 | 50 | 1008.5 |
| 20260507141804 | 72 | 229 | 11.0 | 16.0 | 0.00 | 0.00 | 0.00 | 52 | 1008.5 |
| 20260507141304 | 72 | 212 | 7.0 | 14.0 | 0.00 | 0.00 | 0.00 | 52 | 1008.5 |
| 20260507140804 | 72 | 212 | 10.0 | 17.0 | 0.00 | 0.00 | 0.00 | 53 | 1008.5 |
| 20260507140304 | 72 | 187 | 9.0 | 17.0 | 0.00 | 0.00 | 0.00 | 53 | 1008.5 |
| 20260507135804 | 72 | 200 | 12.0 | 18.0 | 0.00 | 0.00 | 0.00 | 51 | 1008.6 |
| 20260507134303 | 72 | 161 | 7.0 | 14.0 | 0.00 | 0.00 | 0.00 | 53 | 1008.8 |
| 20260507133804 | 71 | 233 | 8.0 | 17.0 | 0.00 | 0.00 | 0.00 | 53 | 1008.8 |
| 20260507133304 | 71 | 208 | 11.0 | 16.0 | 0.00 | 0.00 | 0.00 | 53 | 1008.9 |
| 20260507132804 | 71 | 216 | 9.0 | 14.0 | 0.00 | 0.00 | 0.00 | 52 | 1008.9 |
| 20260507132307 | 71 | 230 | 8.0 | 14.0 | 0.00 | 0.00 | 0.00 | 53 | 1008.9 |
| 20260507131804 | 71 | 190 | 9.0 | 14.0 | 0.00 | 0.00 | 0.00 | 53 | 1008.9 |
| 20260507131304 | 71 | 177 | 7.0 | 15.0 | 0.00 | 0.00 | 0.00 | 54 | 1008.9 |
| 20260507130804 | 71 | 183 | 11.0 | 20.0 | 0.00 | 0.00 | 0.00 | 53 | 1008.9 |
| 20260507130304 | 71 | 174 | 9.0 | 17.0 | 0.00 | 0.00 | 0.00 | 52 | 1009.0 |
| 20260507125804 | 71 | 205 | 7.0 | 14.0 | 0.00 | 0.00 | 0.00 | 53 | 1009.0 |
| 20260507125306 | 72 | 224 | 7.0 | 15.0 | 0.00 | 0.00 | 0.00 | 52 | 1009.1 |
| 20260507124803 | 72 | 203 | 9.0 | 15.0 | 0.00 | 0.00 | 0.00 | 53 | 1009.1 |
| 20260507124303 | 72 | 182 | 7.0 | 13.0 | 0.00 | 0.00 | 0.00 | 54 | 1009.1 |
| 20260507123804 | 72 | 211 | 9.0 | 16.0 | 0.00 | 0.00 | 0.00 | 53 | 1009.1 |
| 20260507123304 | 72 | 188 | 6.0 | 17.0 | 0.00 | 0.00 | 0.00 | 54 | 1009.2 |
| 20260507122804 | 71 | 215 | 9.0 | 14.0 | 0.00 | 0.00 | 0.00 | 54 | 1009.2 |
| 20260507122307 | 71 | 182 | 8.0 | 17.0 | 0.00 | 0.00 | 0.00 | 55 | 1009.3 |
| 20260507121804 | 72 | 213 | 9.0 | 14.0 | 0.00 | 0.00 | 0.00 | 54 | 1009.3 |
| 20260507121303 | 72 | 206 | 9.0 | 14.0 | 0.00 | 0.00 | 0.00 | 56 | 1009.3 |
| 20260507120804 | 71 | 203 | 7.0 | 14.0 | 0.00 | 0.00 | 0.00 | 55 | 1009.3 |
| 20260507120304 | 71 | 174 | 10.0 | 18.0 | 0.00 | 0.00 | 0.00 | 55 | 1009.4 |
| 20260507115804 | 71 | 223 | 7.0 | 14.0 | 0.00 | 0.00 | 0.00 | 56 | 1009.4 |
| 20260507115307 | 71 | 229 | 9.0 | 18.0 | 0.00 | 0.00 | 0.00 | 56 | 1009.5 |
| 20260507114804 | 71 | 206 | 9.0 | 17.0 | 0.00 | 0.00 | 0.00 | 55 | 1009.4 |
| 20260507114304 | 71 | 191 | 8.0 | 18.0 | 0.00 | 0.00 | 0.00 | 55 | 1009.6 |
| 20260507113803 | 70 | 177 | 7.0 | 13.0 | 0.00 | 0.00 | 0.00 | 56 | 1009.6 |
| 20260507113304 | 70 | 178 | 9.0 | 14.0 | 0.00 | 0.00 | 0.00 | 57 | 1009.6 |
| 20260507112306 | 70 | 207 | 8.0 | 15.0 | 0.00 | 0.00 | 0.00 | 58 | 1009.7 |
| 20260507111804 | 70 | 190 | 6.0 | 13.0 | 0.00 | 0.00 | 0.00 | 58 | 1009.7 |
| 20260507111304 | 69 | 213 | 6.0 | 12.0 | 0.00 | 0.00 | 0.00 | 60 | 1009.8 |
| 20260507110804 | 69 | 219 | 10.0 | 16.0 | 0.00 | 0.00 | 0.00 | 61 | 1009.8 |
| 20260507110304 | 69 | 189 | 11.0 | 20.0 | 0.00 | 0.00 | 0.00 | 60 | 1009.8 |
| 20260507105306 | 69 | 214 | 7.0 | 17.0 | 0.00 | 0.00 | 0.00 | 62 | 1009.8 |
| 20260507104804 | 69 | 210 | 10.0 | 17.0 | 0.00 | 0.00 | 0.00 | 61 | 1009.8 |
| 20260507104303 | 69 | 205 | 6.0 | 13.0 | 0.00 | 0.00 | 0.00 | 61 | 1009.8 |
| 20260507103804 | 69 | 196 | 7.0 | 14.0 | 0.00 | 0.00 | 0.00 | 62 | 1009.8 |
| 20260507102804 | 68 | 178 | 7.0 | 14.0 | 0.00 | 0.00 | 0.00 | 63 | 1009.9 |
| 20260507102306 | 68 | 228 | 7.0 | 14.0 | 0.00 | 0.00 | 0.00 | 64 | 1009.9 |
| 20260507101804 | 68 | 179 | 6.0 | 14.0 | 0.00 | 0.00 | 0.00 | 64 | 1009.9 |
| 20260507100804 | 67 | 175 | 7.0 | 12.0 | 0.00 | 0.00 | 0.00 | 66 | 1010.1 |
| 20260507100304 | 66 | 163 | 5.0 | 12.0 | 0.00 | 0.00 | 0.00 | 66 | 1010.1 |
| 20260507095804 | 67 | 196 | 6.0 | 12.0 | 0.00 | 0.00 | 0.00 | 65 | 1010.1 |
| 20260507095306 | 67 | 189 | 8.0 | 14.0 | 0.00 | 0.00 | 0.00 | 65 | 1010.1 |
| 20260507094803 | 67 | 183 | 8.0 | 14.0 | 0.00 | 0.00 | 0.00 | 66 | 1010.1 |
| 20260507094304 | 67 | 215 | 12.0 | 17.0 | 0.00 | 0.00 | 0.00 | 66 | 1010.1 |
| 20260507093804 | 67 | 206 | 9.0 | 16.0 | 0.00 | 0.00 | 0.00 | 68 | 1010.1 |
| 20260507093304 | 66 | 165 | 7.0 | 13.0 | 0.00 | 0.00 | 0.00 | 69 | 1010.1 |
| 20260507092803 | 66 | 178 | 7.0 | 13.0 | 0.00 | 0.00 | 0.00 | 69 | 1010.1 |
| 20260507092306 | 66 | 162 | 8.0 | 13.0 | 0.00 | 0.00 | 0.00 | 69 | 1010.1 |
| 20260507090804 | 65 | 175 | 10.0 | 14.0 | 0.00 | 0.00 | 0.00 | 71 | 1010.2 |
| 20260507085804 | 66 | 183 | 10.0 | 17.0 | 0.00 | 0.00 | 0.00 | 71 | 1010.2 |
| 20260507085306 | 65 | 142 | 6.0 | 16.0 | 0.00 | 0.00 | 0.00 | 72 | 1010.0 |
| 20260507084803 | 65 | 167 | 6.0 | 15.0 | 0.00 | 0.00 | 0.00 | 72 | 1010.0 |
| 20260507083804 | 65 | 146 | 7.0 | 14.0 | 0.00 | 0.00 | 0.00 | 74 | 1010.1 |
| 20260507083304 | 64 | 138 | 7.0 | 13.0 | 0.00 | 0.00 | 0.00 | 74 | 1010.0 |
| 20260507082804 | 64 | 143 | 9.0 | 13.0 | 0.00 | 0.00 | 0.00 | 74 | 1010.0 |
| 20260507081304 | 64 | 172 | 6.0 | 12.0 | 0.00 | 0.00 | 0.00 | 74 | 1009.9 |
| 20260507080804 | 64 | 167 | 7.0 | 13.0 | 0.00 | 0.00 | 0.00 | 74 | 1009.9 |
| 20260507080304 | 63 | 168 | 7.0 | 12.0 | 0.00 | 0.00 | 0.00 | 74 | 1009.8 |
| 20260507075804 | 63 | 190 | 5.0 | 12.0 | 0.00 | 0.00 | 0.00 | 75 | 1009.8 |
| 20260507075306 | 63 | 188 | 8.0 | 12.0 | 0.00 | 0.00 | 0.00 | 75 | 1009.8 |
| 20260507074304 | 63 | 189 | 6.0 | 15.0 | 0.00 | 0.00 | 0.00 | 74 | 1009.7 |
| 20260507073804 | 62 | 137 | 4.0 | 9.0 | 0.00 | 0.00 | 0.00 | 75 | 1009.7 |